Volver al catálogo

SL-3 R/B

ActivoPO
NORAD 9904·ROCKET BODY·🇷🇺 Russia

Lanzado Apr 5, 1977 desde Plesetsk Cosmodrome

Loading…

Próximos Pases (próximas 24 horas)

TLE

ActualizadoSource: Space-Track

Época: Sep 13, 2026, 23:21 UTC

1 09904U 77024B   26256.97329767  .00000111  00000-0  57688-4 0  9994
2 09904  81.2594 107.1776 0054023 179.3296 180.7956 14.07331538537278

Sigue SL-3 R/B en tiempo real con AllMySat

Download on the App Store